193P/LINEAR-NEAT (2008)

Japanese version
Home page
Total 5,708 html files since Dec. 4, 1995
Updated on October 27, 2007

---------------------------------------------------------------------

* Profile

Designation 193P/2007 U2
Recovery Date October 21, 2007
Magnitude 19.8 mag
Recoverer K. Sarneczky and L. L. Kiss (Siding Spring)

* Orbital Elements

                    Epoch = 2008 Feb. 24.0 TT
     T = 2008 Feb. 20.4955 TT         Peri. =   8.2860
     e = 0.395943                     Node  = 335.2570  2000.0
     q = 2.155746 AU                  Incl. =  10.7041
       a =  3.568779 AU    n = 0.1461923    P =   6.742 years

* Magnitudes Graph

        m1 = 12.5 + 5 log d + 10.0 log r

---------------------------------------------------------------------

The orbital elements are printed on IAUC 8885.
The magnitudes graphs are made with Comet for Windows.

---------------------------------------------------------------------

Copyright(C) 1995-2007 Seiichi Yoshida (comet@aerith.net). All rights reserved.